FW6037 Weather Reports


time (UTC)temp
C
wind
direction
speed
KPH
gust
KPH
rain 1hr
cm
rain 24hr
cm
rain mn
cm
humidity
%
barometer
mb
20260506110052 17 156 6.4 25.7 0.00 0.00 0.00 69 1014.1
20260506104550 17 156 4.8 30.6 0.00 0.00 0.00 70 1013.9
20260506103046 17 258 12.9 29.0 0.00 0.00 0.00 71 1013.7
20260506101544 16 226 14.5 33.8 0.00 0.00 0.00 73 1013.5
20260506100046 16 240 9.7 24.1 0.00 0.00 0.00 74 1013.4
20260506094545 15 276 11.3 25.7 0.00 0.00 0.00 76 1013.5
20260506093102 15 210 4.8 27.4 0.00 0.00 0.00 77 1013.5
20260506091545 12 303 6.4 22.5 0.00 0.00 0.00 84 1013.4
20260506090040 10 149 8.0 25.7 0.00 0.00 0.00 83 1013.2
20260506084536 12 132 3.2 16.1 0.00 0.00 0.00 80 1013.1
20260506083037 10 241 3.2 29.0 0.00 0.00 0.00 88 1012.8
20260506081532 8 156 6.4 12.9 0.00 0.00 0.00 88 1012.7
20260506073025 9 134 3.2 14.5 0.00 0.00 0.00 84 1012.9
20260506071523 10 109 4.8 14.5 0.00 0.00 0.00 79 1012.8
20260506061512 15 243 4.8 17.7 0.00 0.00 0.00 72 1012.8
20260506044616 15 227 12.9 29.0 0.00 0.00 0.00 68 1012.3
20260506043058 15 233 9.7 27.4 0.00 0.00 0.00 69 1012.3
20260506041607 15 265 12.9 32.2 0.00 0.00 0.00 68 1012.0
20260506040055 16 274 12.9 30.6 0.00 0.00 0.00 67 1012.1
20260506034548 16 237 8.0 27.4 0.00 0.00 0.00 66 1011.8
20260506033050 16 231 11.3 25.7 0.00 0.00 0.00 65 1011.8
20260506031547 16 237 12.9 32.2 0.00 0.00 0.00 64 1011.7
20260506030041 16 247 12.9 41.8 0.00 0.00 0.00 64 1011.7
20260506024541 16 260 14.5 32.2 0.00 0.00 0.00 63 1011.7
20260506023050 16 260 14.5 32.2 0.00 0.00 0.00 63 1011.8
20260506021538 16 252 17.7 41.8 0.00 0.00 0.00 62 1011.7
20260506020108 16 250 14.5 32.2 0.00 0.00 0.00 62 1011.5
20260506014537 17 227 22.5 43.5 0.00 0.00 0.00 61 1011.6
20260506013035 17 245 12.9 32.2 0.00 0.00 0.00 59 1011.5
20260506011536 17 266 16.1 37.0 0.00 0.00 0.00 58 1011.3
20260506010034 17 245 9.7 27.4 0.00 0.00 0.00 57 1011.2
20260506004539 17 207 9.7 29.0 0.00 0.00 0.00 56 1011.2
20260506003031 16 256 6.4 20.9 0.00 0.00 0.00 56 1011.0
20260506001530 16 252 8.0 25.7 0.00 0.00 0.00 57 1011.0
20260506000043 14 179 4.8 16.1 0.00 0.00 0.00 63 1011.0
20260505234527 11 116 0.0 9.7 0.00 0.00 0.00 66 1010.8
20260505233027 16 249 3.2 11.3 0.00 0.00 0.00 58 1010.6
20260505231626 16 239 1.6 8.0 0.00 0.00 0.00 58 1010.4
20260505230039 15 147 1.6 8.0 0.00 0.00 0.00 59 1010.3
20260505224525 15 148 4.8 8.0 0.00 0.00 0.00 58 1010.2
20260505223024 16 153 1.6 8.0 0.00 0.00 0.00 55 1010.3
20260505221524 19 112 6.4 11.3 0.00 0.00 0.00 46 1010.4
20260505220023 21 266 1.6 29.0 0.00 0.00 0.00 41 1010.2
20260505214524 21 258 6.4 30.6 0.00 0.00 0.00 42 1010.3
20260505213026 21 234 4.8 20.9 0.00 0.00 0.00 46 1009.9
20260505211529 20 170 4.8 19.3 0.00 0.00 0.00 50 1010.1
20260505210020 19 162 3.2 17.7 0.00 0.00 0.00 51 1010.0
20260505204519 20 82 4.8 12.9 0.00 0.00 0.00 50 1009.9
20260505203019 21 101 4.8 12.9 0.00 0.00 0.00 48 1009.8
20260505201517 21 107 4.8 19.3 0.00 0.00 0.00 46 1009.8
20260505200017 25 202 4.8 14.5 0.00 0.00 0.00 38 1009.7
20260505194513 24 200 12.9 27.4 0.00 0.00 0.00 33 1009.7
20260505193011 24 258 14.5 38.6 0.00 0.00 0.00 34 1009.8
20260505191513 24 218 16.1 40.2 0.00 0.00 0.00 36 1009.7
20260505190014 24 233 11.3 33.8 0.00 0.00 0.00 38 1009.6
20260505184507 24 260 17.7 37.0 0.00 0.00 0.00 38 1009.7
20260505183011 24 232 16.1 40.2 0.00 0.00 0.00 37 1009.7
20260505181505 23 269 14.5 53.1 0.00 0.00 0.00 38 1009.5
20260505180004 23 232 19.3 38.6 0.00 0.00 0.00 38 1009.7
20260505174502 23 257 14.5 40.2 0.00 0.00 0.00 40 1009.7
20260505173059 23 238 14.5 37.0 0.00 0.00 0.00 42 1009.7
20260505171602 18 232 11.3 20.9 0.00 0.00 0.00 53 1009.8
20260505170054 16 117 4.8 16.1 0.00 0.00 0.00 62 1010.3
20260505164554 15 116 8.0 20.9 0.00 0.15 0.00 63 1010.3
20260505163053 16 113 11.3 20.9 0.00 0.15 0.00 60 1010.5
20260505161553 16 106 6.4 24.1 0.00 0.15 0.00 60 1010.2
20260505153053 17 230 8.0 24.1 0.00 0.46 0.00 59 1010.4
20260505151551 18 78 6.4 27.4 0.00 0.46 0.00 54 1010.4
20260505124525 15 289 14.5 25.7 0.00 0.86 0.00 53 1010.6
20260505123030 14 277 8.0 25.7 0.00 0.86 0.00 54 1010.2
20260505121522 14 283 12.9 27.4 0.00 0.86 0.00 56 1010.1
20260505120014 13 257 6.4 19.3 0.00 0.86 0.00 64 1009.9
20260505114512 12 192 3.2 12.9 0.00 0.94 0.00 69 1009.9
20260505113012 11 173 4.8 14.5 0.00 0.94 0.00 69 1009.8
20260505111504 11 173 3.2 19.3 0.00 0.94 0.00 71 1009.7